Time,TemperatureF,DewpointF,PressureIn,WindDirection,WindDirectionDegrees,WindSpeedMPH,WindSpeedGustMPH,Humidity,HourlyPrecipIn,Conditions,Clouds,dailyrainin,SoftwareType,DateUTC
2013-03-27 00:00:00,37.6,25.4,30.25,NW,313,2.0,6.0,61,0.00,,---,0.00,VWS V14.01,2013-03-27 04:00:00,
2013-03-27 00:01:00,37.5,25.3,30.25,NNW,337,2.0,2.0,61,0.00,,---,0.00,VWS V14.01,2013-03-27 04:01:00,
2013-03-27 00:02:00,37.4,25.2,30.25,NNW,333,1.0,3.0,61,0.00,,---,0.00,VWS V14.01,2013-03-27 04:02:00,
2013-03-27 00:07:00,37.3,25.1,30.25,NNW,344,2.0,5.0,61,0.00,,---,0.00,VWS V14.01,2013-03-27 04:07:00,
2013-03-27 00:13:00,37.2,25.0,30.25,NNW,342,1.0,5.0,61,0.00,,---,0.00,VWS V14.01,2013-03-27 04:13:00,
2013-03-27 00:18:00,37.2,25.0,30.25,NW,313,2.0,5.0,61,0.00,,---,0.00,VWS V14.01,2013-03-27 04:18:00,
2013-03-27 00:23:00,37.1,24.9,30.25,NNW,339,3.0,6.0,61,0.00,,---,0.00,VWS V14.01,2013-03-27 04:23:00,
2013-03-27 00:28:00,37.0,24.8,30.25,NNW,340,1.0,7.0,61,0.00,,---,0.00,VWS V14.01,2013-03-27 04:28:00,
2013-03-27 00:34:00,36.9,24.7,30.25,NNW,327,0.0,5.0,61,0.00,,---,0.00,VWS V14.01,2013-03-27 04:34:00,
2013-03-27 00:39:00,36.6,24.8,30.25,NNW,336,2.0,6.0,62,0.00,,---,0.00,VWS V14.01,2013-03-27 04:39:00,
2013-03-27 00:44:00,36.6,24.8,30.25,NNW,327,3.0,8.0,62,0.00,,---,0.00,VWS V14.01,2013-03-27 04:44:00,
2013-03-27 00:49:00,36.6,24.8,30.25,NNW,333,2.0,5.0,62,0.00,,---,0.00,VWS V14.01,2013-03-27 04:49:00,
2013-03-27 00:55:00,36.2,24.8,30.25,WNW,294,2.0,5.0,63,0.00,,---,0.00,VWS V14.01,2013-03-27 04:55:00,
2013-03-27 01:00:00,36.1,24.7,30.25,NNW,337,1.0,5.0,63,0.00,,---,0.00,VWS V14.01,2013-03-27 05:00:00,
2013-03-27 01:05:00,36.1,24.7,30.25,North,349,2.0,5.0,63,0.00,,---,0.00,VWS V14.01,2013-03-27 05:05:00,
2013-03-27 01:12:00,36.1,24.7,30.25,NNW,330,1.0,5.0,63,0.00,,---,0.00,VWS V14.01,2013-03-27 05:12:00,
2013-03-27 01:17:00,36.0,24.6,30.25,NNW,339,2.0,3.0,63,0.00,,---,0.00,VWS V14.01,2013-03-27 05:17:00,
2013-03-27 01:22:00,35.9,24.5,30.25,NNW,344,1.0,6.0,63,0.00,,---,0.00,VWS V14.01,2013-03-27 05:22:00,
2013-03-27 01:27:00,35.8,24.5,30.25,NW,318,2.0,6.0,63,0.00,,---,0.00,VWS V14.01,2013-03-27 05:27:00,
2013-03-27 01:33:00,35.6,24.3,30.25,North,355,3.0,4.0,63,0.00,,---,0.00,VWS V14.01,2013-03-27 05:33:00,
2013-03-27 01:38:00,35.7,24.4,30.25,NNW,327,0.0,5.0,63,0.00,,---,0.00,VWS V14.01,2013-03-27 05:38:00,
2013-03-27 01:43:00,35.4,24.1,30.25,NNW,341,3.0,5.0,63,0.00,,---,0.00,VWS V14.01,2013-03-27 05:43:00,
2013-03-27 01:48:00,35.1,24.2,30.25,NW,304,1.0,3.0,64,0.00,,---,0.00,VWS V14.01,2013-03-27 05:48:00,
2013-03-27 01:53:00,34.9,24.0,30.25,NW,316,3.0,3.0,64,0.00,,---,0.00,VWS V14.01,2013-03-27 05:53:00,
2013-03-27 01:59:00,34.7,24.1,30.25,NW,326,0.0,3.0,65,0.00,,---,0.00,VWS V14.01,2013-03-27 05:59:00,
2013-03-27 02:04:00,34.2,24.0,30.25,NW,326,0.0,1.0,66,0.00,,---,0.00,VWS V14.01,2013-03-27 06:04:00,
2013-03-27 02:09:00,34.1,24.0,30.25,NW,317,4.0,4.0,66,0.00,,---,0.00,VWS V14.01,2013-03-27 06:09:00,
2013-03-27 02:14:00,33.9,24.1,30.25,NNW,346,1.0,4.0,67,0.00,,---,0.00,VWS V14.01,2013-03-27 06:14:00,
2013-03-27 02:19:00,33.8,24.0,30.25,NNW,329,1.0,3.0,67,0.00,,---,0.00,VWS V14.01,2013-03-27 06:19:00,
2013-03-27 02:25:00,33.8,24.0,30.25,NW,311,0.0,3.0,67,0.00,,---,0.00,VWS V14.01,2013-03-27 06:25:00,
2013-03-27 02:30:00,33.8,24.0,30.25,NW,308,0.0,5.0,67,0.00,,---,0.00,VWS V14.01,2013-03-27 06:30:00,
2013-03-27 02:35:00,33.7,23.9,30.25,NNW,328,1.0,2.0,67,0.00,,---,0.00,VWS V14.01,2013-03-27 06:35:00,
2013-03-27 02:40:00,33.9,24.1,30.25,NW,310,1.0,5.0,67,0.00,,---,0.00,VWS V14.01,2013-03-27 06:40:00,
2013-03-27 02:46:00,34.0,24.2,30.25,NW,316,1.0,5.0,67,0.00,,---,0.00,VWS V14.01,2013-03-27 06:46:00,
2013-03-27 02:51:00,33.9,24.1,30.25,NW,311,0.0,4.0,67,0.00,,---,0.00,VWS V14.01,2013-03-27 06:51:00,
2013-03-27 02:56:00,34.0,24.2,30.25,NNW,338,2.0,5.0,67,0.00,,---,0.00,VWS V14.01,2013-03-27 06:56:00,
2013-03-27 03:02:00,34.1,24.3,30.25,WNW,287,2.0,2.0,67,0.00,,---,0.00,VWS V14.01,2013-03-27 07:02:00,
2013-03-27 03:07:00,33.9,24.1,30.25,NNW,327,1.0,6.0,67,0.00,,---,0.00,VWS V14.01,2013-03-27 07:07:00,
2013-03-27 03:12:00,33.8,24.4,30.25,WNW,303,0.0,6.0,68,0.00,,---,0.00,VWS V14.01,2013-03-27 07:12:00,
2013-03-27 03:17:00,33.6,24.2,30.25,WNW,294,2.0,3.0,68,0.00,,---,0.00,VWS V14.01,2013-03-27 07:17:00,
2013-03-27 03:22:00,33.5,24.1,30.25,NNW,331,2.0,4.0,68,0.00,,---,0.00,VWS V14.01,2013-03-27 07:22:00,
2013-03-27 03:27:00,33.4,24.3,30.25,NW,321,0.0,4.0,69,0.00,,---,0.00,VWS V14.01,2013-03-27 07:27:00,
2013-03-27 03:32:00,33.5,24.4,30.25,WNW,300,0.0,3.0,69,0.00,,---,0.00,VWS V14.01,2013-03-27 07:32:00,
2013-03-27 03:38:00,33.4,24.3,30.25,WNW,298,0.0,4.0,69,0.00,,---,0.00,VWS V14.01,2013-03-27 07:38:00,
2013-03-27 03:43:00,33.2,24.1,30.25,North,360,1.0,5.0,69,0.00,,---,0.00,VWS V14.01,2013-03-27 07:43:00,
2013-03-27 03:48:00,33.2,24.5,30.25,West,278,1.0,4.0,70,0.00,,---,0.00,VWS V14.01,2013-03-27 07:48:00,
2013-03-27 03:54:00,33.1,24.4,30.25,NW,308,1.0,4.0,70,0.00,,---,0.00,VWS V14.01,2013-03-27 07:54:00,
2013-03-27 03:59:00,33.1,24.4,30.25,NNW,327,2.0,4.0,70,0.00,,---,0.00,VWS V14.01,2013-03-27 07:59:00,
2013-03-27 04:04:00,32.9,24.2,30.25,NNW,331,2.0,3.0,70,0.00,,---,0.00,VWS V14.01,2013-03-27 08:04:00,
2013-03-27 04:09:00,32.9,24.2,30.25,NW,306,1.0,5.0,70,0.00,,---,0.00,VWS V14.01,2013-03-27 08:09:00,
2013-03-27 04:15:00,32.9,24.2,30.25,WNW,297,3.0,5.0,70,0.00,,---,0.00,VWS V14.01,2013-03-27 08:15:00,
2013-03-27 04:20:00,33.2,24.5,30.25,WNW,291,0.0,4.0,70,0.00,,---,0.00,VWS V14.01,2013-03-27 08:20:00,
2013-03-27 04:25:00,33.3,24.2,30.25,NW,308,0.0,4.0,69,0.00,,---,0.00,VWS V14.01,2013-03-27 08:25:00,
2013-03-27 04:30:00,33.1,24.4,30.25,WNW,293,1.0,4.0,70,0.00,,---,0.00,VWS V14.01,2013-03-27 08:30:00,
2013-03-27 04:37:00,32.6,23.9,30.25,NW,317,0.0,4.0,70,0.00,,---,0.00,VWS V14.01,2013-03-27 08:37:00,
2013-03-27 04:42:00,32.3,24.0,30.25,WNW,300,0.0,4.0,71,0.00,,---,0.00,VWS V14.01,2013-03-27 08:42:00,
2013-03-27 04:48:00,32.1,24.1,30.24,WNW,286,1.0,3.0,72,0.00,,---,0.00,VWS V14.01,2013-03-27 08:48:00,
2013-03-27 04:53:00,32.1,24.1,30.24,WNW,297,3.0,3.0,72,0.00,,---,0.00,VWS V14.01,2013-03-27 08:53:00,
2013-03-27 04:58:00,31.9,23.9,30.24,NW,319,1.0,3.0,72,0.00,,---,0.00,VWS V14.01,2013-03-27 08:58:00,
2013-03-27 05:03:00,31.7,23.7,30.25,NW,318,2.0,4.0,72,0.00,,---,0.00,VWS V14.01,2013-03-27 09:03:00,
2013-03-27 05:08:00,31.7,24.0,30.25,WNW,299,2.0,4.0,73,0.00,,---,0.00,VWS V14.01,2013-03-27 09:08:00,
2013-03-27 05:14:00,31.8,23.8,30.25,NNW,339,1.0,4.0,72,0.00,,---,0.00,VWS V14.01,2013-03-27 09:14:00,
2013-03-27 05:19:00,31.7,24.0,30.25,North,350,0.0,3.0,73,0.00,,---,0.00,VWS V14.01,2013-03-27 09:19:00,
2013-03-27 05:24:00,31.7,24.0,30.25,NW,307,2.0,3.0,73,0.00,,---,0.00,VWS V14.01,2013-03-27 09:24:00,
2013-03-27 05:29:00,32.0,24.0,30.25,NW,325,0.0,5.0,72,0.00,,---,0.00,VWS V14.01,2013-03-27 09:29:00,
2013-03-27 05:35:00,31.6,23.6,30.25,NW,323,1.0,4.0,72,0.00,,---,0.00,VWS V14.01,2013-03-27 09:35:00,
2013-03-27 05:40:00,31.5,23.9,30.26,NW,323,1.0,4.0,73,0.00,,---,0.00,VWS V14.01,2013-03-27 09:40:00,
2013-03-27 05:45:00,31.4,23.8,30.26,NW,320,3.0,4.0,73,0.00,,---,0.00,VWS V14.01,2013-03-27 09:45:00,
2013-03-27 05:50:00,31.4,23.8,30.26,NNW,328,1.0,3.0,73,0.00,,---,0.00,VWS V14.01,2013-03-27 09:50:00,
2013-03-27 05:55:00,31.5,23.9,30.26,WNW,298,1.0,3.0,73,0.00,,---,0.00,VWS V14.01,2013-03-27 09:55:00,
2013-03-27 06:01:00,31.5,23.9,30.26,NW,319,0.0,3.0,73,0.00,,---,0.00,VWS V14.01,2013-03-27 10:01:00,
2013-03-27 06:06:00,31.3,23.7,30.27,WNW,291,1.0,3.0,73,0.00,,---,0.00,VWS V14.01,2013-03-27 10:06:00,
2013-03-27 06:12:00,31.2,23.9,30.27,NW,308,1.0,3.0,74,0.00,,---,0.00,VWS V14.01,2013-03-27 10:12:00,
2013-03-27 06:17:00,31.4,24.1,30.27,NW,315,1.0,3.0,74,0.00,,---,0.00,VWS V14.01,2013-03-27 10:17:00,
2013-03-27 06:22:00,31.5,23.9,30.27,NNW,340,1.0,4.0,73,0.00,,---,0.00,VWS V14.01,2013-03-27 10:22:00,
2013-03-27 06:27:00,31.7,24.0,30.27,NW,309,0.0,4.0,73,0.00,,---,0.00,VWS V14.01,2013-03-27 10:27:00,
2013-03-27 06:32:00,31.6,24.0,30.27,NNW,335,1.0,2.0,73,0.00,,---,0.00,VWS V14.01,2013-03-27 10:32:00,
2013-03-27 06:37:00,31.7,24.0,30.28,NW,306,3.0,5.0,73,0.00,,---,0.00,VWS V14.01,2013-03-27 10:37:00,
2013-03-27 06:42:00,31.7,24.0,30.28,NW,321,2.0,5.0,73,0.00,,---,0.00,VWS V14.01,2013-03-27 10:42:00,
2013-03-27 06:48:00,31.7,24.0,30.28,NW,313,0.0,3.0,73,0.00,,---,0.00,VWS V14.01,2013-03-27 10:48:00,
2013-03-27 06:53:00,31.6,24.0,30.28,NW,309,0.0,3.0,73,0.00,,---,0.00,VWS V14.01,2013-03-27 10:53:00,
2013-03-27 06:58:00,31.5,23.9,30.28,NW,312,0.0,3.0,73,0.00,,---,0.00,VWS V14.01,2013-03-27 10:58:00,
2013-03-27 07:03:00,31.3,24.0,30.28,NNW,331,1.0,3.0,74,0.00,,---,0.00,VWS V14.01,2013-03-27 11:03:00,
2013-03-27 07:08:00,31.0,23.7,30.29,NW,323,0.0,3.0,74,0.00,,---,0.00,VWS V14.01,2013-03-27 11:08:00,
2013-03-27 07:14:00,30.9,23.9,30.29,NW,323,0.0,3.0,75,0.00,,---,0.00,VWS V14.01,2013-03-27 11:14:00,
2013-03-27 07:19:00,30.8,23.8,30.29,NW,323,0.0,2.0,75,0.00,,---,0.00,VWS V14.01,2013-03-27 11:19:00,
2013-03-27 07:24:00,30.6,23.6,30.29,NW,324,0.0,2.0,75,0.00,,---,0.00,VWS V14.01,2013-03-27 11:24:00,
2013-03-27 07:29:00,30.7,24.0,30.30,NNW,327,1.0,3.0,76,0.00,,---,0.00,VWS V14.01,2013-03-27 11:29:00,
2013-03-27 07:34:00,30.8,24.1,30.30,NNW,344,0.0,4.0,76,0.00,,---,0.00,VWS V14.01,2013-03-27 11:34:00,
2013-03-27 07:39:00,31.0,24.3,30.30,North,350,0.0,4.0,76,0.00,,---,0.00,VWS V14.01,2013-03-27 11:39:00,
2013-03-27 07:44:00,31.0,24.3,30.30,NNW,346,1.0,4.0,76,0.00,,---,0.00,VWS V14.01,2013-03-27 11:44:00,
2013-03-27 07:50:00,31.2,24.5,30.30,NNW,346,0.0,1.0,76,0.00,,---,0.00,VWS V14.01,2013-03-27 11:50:00,
2013-03-27 07:55:00,32.0,25.0,30.30,NW,315,2.0,2.0,75,0.00,,---,0.00,VWS V14.01,2013-03-27 11:55:00,
2013-03-27 08:00:00,33.1,25.7,30.30,NNW,330,2.0,3.0,74,0.00,,---,0.00,VWS V14.01,2013-03-27 12:00:00,
2013-03-27 08:05:00,34.1,26.4,30.30,NNW,328,1.0,3.0,73,0.00,,---,0.00,VWS V14.01,2013-03-27 12:05:00,
2013-03-27 08:10:00,35.1,26.7,30.30,NW,315,0.0,5.0,71,0.00,,---,0.00,VWS V14.01,2013-03-27 12:10:00,
2013-03-27 08:15:00,35.9,27.1,30.31,NNE,20,3.0,5.0,70,0.00,,---,0.00,VWS V14.01,2013-03-27 12:15:00,
2013-03-27 08:20:00,36.6,27.0,30.31,NW,325,1.0,4.0,68,0.00,,---,0.00,VWS V14.01,2013-03-27 12:20:00,
2013-03-27 08:27:00,37.5,27.2,30.31,NNW,338,2.0,7.0,66,0.00,,---,0.00,VWS V14.01,2013-03-27 12:27:00,
2013-03-27 08:32:00,38.3,28.0,30.31,WNW,293,1.0,3.0,66,0.00,,---,0.00,VWS V14.01,2013-03-27 12:32:00,
2013-03-27 08:37:00,38.8,28.1,30.31,North,5,2.0,6.0,65,0.00,,---,0.00,VWS V14.01,2013-03-27 12:37:00,
2013-03-27 08:42:00,39.5,28.7,30.32,NNW,345,3.0,6.0,65,0.00,,---,0.00,VWS V14.01,2013-03-27 12:42:00,
2013-03-27 08:47:00,40.1,28.5,30.32,NW,309,3.0,3.0,63,0.00,,---,0.00,VWS V14.01,2013-03-27 12:47:00,
2013-03-27 08:52:00,40.5,28.9,30.32,NE,42,1.0,5.0,63,0.00,,---,0.00,VWS V14.01,2013-03-27 12:52:00,
2013-03-27 08:58:00,41.0,28.6,30.32,North,355,4.0,7.0,61,0.00,,---,0.00,VWS V14.01,2013-03-27 12:58:00,
2013-03-27 09:03:00,41.1,28.7,30.32,NW,309,7.0,7.0,61,0.00,,---,0.00,VWS V14.01,2013-03-27 13:03:00,
2013-03-27 09:08:00,41.6,28.8,30.32,North,350,6.0,7.0,60,0.00,,---,0.00,VWS V14.01,2013-03-27 13:08:00,
2013-03-27 09:14:00,41.8,29.0,30.32,NW,323,3.0,9.0,60,0.00,,---,0.00,VWS V14.01,2013-03-27 13:14:00,
2013-03-27 09:19:00,42.3,28.6,30.32,West,276,4.0,7.0,58,0.00,,---,0.00,VWS V14.01,2013-03-27 13:19:00,
2013-03-27 09:24:00,42.6,28.9,30.32,NNW,345,3.0,8.0,58,0.00,,---,0.00,VWS V14.01,2013-03-27 13:24:00,
2013-03-27 09:29:00,43.8,29.6,30.32,NNW,333,8.0,8.0,57,0.00,,---,0.00,VWS V14.01,2013-03-27 13:29:00,
2013-03-27 09:35:00,43.7,29.0,30.32,NW,323,4.0,8.0,56,0.00,,---,0.00,VWS V14.01,2013-03-27 13:35:00,
2013-03-27 09:40:00,43.8,28.2,30.32,NNW,329,9.0,10.0,54,0.00,,---,0.00,VWS V14.01,2013-03-27 13:40:00,
2013-03-27 09:45:00,44.2,28.6,30.32,NW,316,4.0,10.0,54,0.00,,---,0.00,VWS V14.01,2013-03-27 13:45:00,
2013-03-27 09:51:00,44.5,28.9,30.32,NNW,329,2.0,8.0,54,0.00,,---,0.00,VWS V14.01,2013-03-27 13:51:00,
2013-03-27 09:56:00,45.0,28.9,30.32,NW,319,5.0,8.0,53,0.00,,---,0.00,VWS V14.01,2013-03-27 13:56:00,
2013-03-27 10:01:00,44.7,28.2,30.32,WNW,284,5.0,6.0,52,0.00,,---,0.00,VWS V14.01,2013-03-27 14:01:00,
2013-03-27 10:07:00,44.7,27.2,30.32,North,350,7.0,12.0,50,0.00,,---,0.00,VWS V14.01,2013-03-27 14:07:00,
2013-03-27 10:12:00,45.1,28.1,30.32,NNW,340,5.0,12.0,51,0.00,,---,0.00,VWS V14.01,2013-03-27 14:12:00,
2013-03-27 10:17:00,45.5,27.5,30.32,WNW,290,3.0,9.0,49,0.00,,---,0.00,VWS V14.01,2013-03-27 14:17:00,
2013-03-27 10:23:00,46.3,28.7,30.32,NNE,28,7.0,13.0,50,0.00,,---,0.00,VWS V14.01,2013-03-27 14:23:00,
2013-03-27 10:28:00,45.8,27.2,30.32,NW,326,2.0,13.0,48,0.00,,---,0.00,VWS V14.01,2013-03-27 14:28:00,
2013-03-27 10:33:00,46.6,28.5,30.32,NNW,343,6.0,9.0,49,0.00,,---,0.00,VWS V14.01,2013-03-27 14:33:00,
2013-03-27 10:38:00,46.0,27.9,30.32,West,268,1.0,11.0,49,0.00,,---,0.00,VWS V14.01,2013-03-27 14:38:00,
2013-03-27 10:43:00,46.5,26.9,30.32,NW,316,8.0,11.0,46,0.00,,---,0.00,VWS V14.01,2013-03-27 14:43:00,
2013-03-27 10:49:00,46.1,27.5,30.32,NNW,344,3.0,7.0,48,0.00,,---,0.00,VWS V14.01,2013-03-27 14:49:00,
2013-03-27 10:54:00,47.6,28.4,30.32,NNW,336,8.0,9.0,47,0.00,,---,0.00,VWS V14.01,2013-03-27 14:54:00,
2013-03-27 10:59:00,46.9,28.2,30.32,North,355,5.0,9.0,48,0.00,,---,0.00,VWS V14.01,2013-03-27 14:59:00,
2013-03-27 11:04:00,47.5,28.3,30.32,NNW,328,5.0,8.0,47,0.00,,---,0.00,VWS V14.01,2013-03-27 15:04:00,
2013-03-27 11:09:00,48.4,29.1,30.32,NNW,341,4.0,8.0,47,0.00,,---,0.00,VWS V14.01,2013-03-27 15:09:00,
2013-03-27 11:15:00,48.3,29.0,30.32,West,271,2.0,8.0,47,0.00,,---,0.00,VWS V14.01,2013-03-27 15:15:00,
2013-03-27 11:20:00,48.1,29.4,30.32,North,5,2.0,10.0,48,0.00,,---,0.00,VWS V14.01,2013-03-27 15:20:00,
2013-03-27 11:25:00,48.7,28.3,30.32,North,355,1.0,10.0,45,0.00,,---,0.00,VWS V14.01,2013-03-27 15:25:00,
2013-03-27 11:31:00,49.0,30.2,30.32,WNW,295,4.0,10.0,48,0.00,,---,0.00,VWS V14.01,2013-03-27 15:31:00,
2013-03-27 11:37:00,47.9,26.5,30.33,NW,326,3.0,12.0,43,0.00,,---,0.00,VWS V14.01,2013-03-27 15:37:00,
2013-03-27 11:42:00,48.1,28.3,30.33,WNW,294,4.0,12.0,46,0.00,,---,0.00,VWS V14.01,2013-03-27 15:42:00,
2013-03-27 11:47:00,48.8,27.3,30.33,NW,304,6.0,8.0,43,0.00,,---,0.00,VWS V14.01,2013-03-27 15:47:00,
2013-03-27 11:53:00,48.5,26.5,30.33,NW,317,6.0,12.0,42,0.00,,---,0.00,VWS V14.01,2013-03-27 15:53:00,
2013-03-27 11:58:00,48.1,27.2,30.33,NW,320,5.0,12.0,44,0.00,,---,0.00,VWS V14.01,2013-03-27 15:58:00,
2013-03-27 12:03:00,48.8,26.7,30.32,North,355,2.0,7.0,42,0.00,,---,0.00,VWS V14.01,2013-03-27 16:03:00,
2013-03-27 12:08:00,48.9,26.8,30.32,NW,309,2.0,12.0,42,0.00,,---,0.00,VWS V14.01,2013-03-27 16:08:00,
2013-03-27 12:14:00,48.9,26.8,30.32,West,271,5.0,12.0,42,0.00,,---,0.00,VWS V14.01,2013-03-27 16:14:00,
2013-03-27 12:19:00,49.0,26.9,30.32,NNW,329,0.0,8.0,42,0.00,,---,0.00,VWS V14.01,2013-03-27 16:19:00,
2013-03-27 12:24:00,49.1,26.4,30.32,West,267,2.0,9.0,41,0.00,,---,0.00,VWS V14.01,2013-03-27 16:24:00,
2013-03-27 12:29:00,48.0,26.0,30.32,NNW,331,5.0,9.0,42,0.00,,---,0.00,VWS V14.01,2013-03-27 16:29:00,
2013-03-27 12:35:00,49.0,28.0,30.32,North,5,1.0,14.0,44,0.00,,---,0.00,VWS V14.01,2013-03-27 16:35:00,
2013-03-27 12:40:00,49.3,26.6,30.31,West,276,3.0,14.0,41,0.00,,---,0.00,VWS V14.01,2013-03-27 16:40:00,
2013-03-27 12:45:00,49.9,27.7,30.31,North,351,6.0,14.0,42,0.00,,---,0.00,VWS V14.01,2013-03-27 16:45:00,
2013-03-27 12:50:00,50.1,29.0,30.31,WNW,291,6.0,8.0,44,0.00,,---,0.00,VWS V14.01,2013-03-27 16:50:00,
2013-03-27 12:56:00,50.8,28.5,30.31,NW,317,11.0,13.0,42,0.00,,---,0.00,VWS V14.01,2013-03-27 16:56:00,
2013-03-27 13:01:00,49.9,26.6,30.31,WSW,246,10.0,10.0,40,0.00,,---,0.00,VWS V14.01,2013-03-27 17:01:00,
2013-03-27 13:07:00,50.3,28.7,30.31,West,270,9.0,11.0,43,0.00,,---,0.00,VWS V14.01,2013-03-27 17:07:00,
2013-03-27 13:12:00,51.1,30.0,30.31,NW,315,4.0,15.0,44,0.00,,---,0.00,VWS V14.01,2013-03-27 17:12:00,
2013-03-27 13:17:00,50.1,27.9,30.30,WNW,294,5.0,12.0,42,0.00,,---,0.00,VWS V14.01,2013-03-27 17:17:00,
2013-03-27 13:22:00,51.0,28.1,30.31,WNW,284,9.0,12.0,41,0.00,,---,0.00,VWS V14.01,2013-03-27 17:22:00,
2013-03-27 13:28:00,51.3,28.4,30.31,NW,314,4.0,15.0,41,0.00,,---,0.00,VWS V14.01,2013-03-27 17:28:00,
2013-03-27 13:33:00,51.1,26.4,30.30,NW,309,3.0,11.0,38,0.00,,---,0.00,VWS V14.01,2013-03-27 17:33:00,
2013-03-27 13:38:00,51.3,27.2,30.30,NW,319,2.0,11.0,39,0.00,,---,0.00,VWS V14.01,2013-03-27 17:38:00,
2013-03-27 13:43:00,52.1,28.5,30.30,WNW,292,5.0,11.0,40,0.00,,---,0.00,VWS V14.01,2013-03-27 17:43:00,
2013-03-27 13:48:00,51.9,28.4,30.30,NNW,342,6.0,14.0,40,0.00,,---,0.00,VWS V14.01,2013-03-27 17:48:00,
2013-03-27 13:53:00,52.1,29.1,30.30,NNW,331,1.0,14.0,41,0.00,,---,0.00,VWS V14.01,2013-03-27 17:53:00,
2013-03-27 13:59:00,52.4,30.0,30.29,ESE,108,2.0,14.0,42,0.00,,---,0.00,VWS V14.01,2013-03-27 17:59:00,
2013-03-27 14:04:00,52.3,27.5,30.29,West,265,6.0,11.0,38,0.00,,---,0.00,VWS V14.01,2013-03-27 18:04:00,
2013-03-27 14:09:00,53.4,30.9,30.29,West,280,6.0,11.0,42,0.00,,---,0.00,VWS V14.01,2013-03-27 18:09:00,
2013-03-27 14:14:00,53.0,30.5,30.28,West,265,3.0,11.0,42,0.00,,---,0.00,VWS V14.01,2013-03-27 18:14:00,
2013-03-27 14:19:00,52.7,27.8,30.29,NW,317,7.0,14.0,38,0.00,,---,0.00,VWS V14.01,2013-03-27 18:19:00,
2013-03-27 14:25:00,51.9,26.5,30.28,NNW,335,5.0,18.0,37,0.00,,---,0.00,VWS V14.01,2013-03-27 18:25:00,
2013-03-27 14:30:00,52.8,27.9,30.28,WNW,286,5.0,18.0,38,0.00,,---,0.00,VWS V14.01,2013-03-27 18:30:00,
2013-03-27 14:35:00,52.7,27.8,30.28,NW,306,6.0,9.0,38,0.00,,---,0.00,VWS V14.01,2013-03-27 18:35:00,
2013-03-27 14:40:00,53.5,29.2,30.28,WNW,291,3.0,9.0,39,0.00,,---,0.00,VWS V14.01,2013-03-27 18:40:00,
2013-03-27 14:45:00,53.1,27.5,30.28,North,5,5.0,15.0,37,0.00,,---,0.00,VWS V14.01,2013-03-27 18:45:00,
2013-03-27 14:51:00,52.9,26.7,30.28,WNW,296,7.0,14.0,36,0.00,,---,0.00,VWS V14.01,2013-03-27 18:51:00,
2013-03-27 14:56:00,52.7,27.2,30.27,NNW,331,5.0,14.0,37,0.00,,---,0.00,VWS V14.01,2013-03-27 18:56:00,
2013-03-27 15:01:00,53.2,28.9,30.27,WSW,253,2.0,2.0,39,0.00,,---,0.00,VWS V14.01,2013-03-27 19:01:00,
2013-03-27 15:06:00,53.6,28.0,30.26,North,350,11.0,12.0,37,0.00,,---,0.00,VWS V14.01,2013-03-27 19:06:00,
2013-03-27 15:11:00,53.3,26.4,30.26,North,355,6.0,12.0,35,0.00,,---,0.00,VWS V14.01,2013-03-27 19:11:00,
2013-03-27 15:16:00,53.4,27.1,30.26,NNE,26,5.0,9.0,36,0.00,,---,0.00,VWS V14.01,2013-03-27 19:16:00,
2013-03-27 15:22:00,53.2,28.3,30.26,WNW,300,3.0,9.0,38,0.00,,---,0.00,VWS V14.01,2013-03-27 19:22:00,
2013-03-27 15:27:00,53.7,27.4,30.26,NNW,331,6.0,13.0,36,0.00,,---,0.00,VWS V14.01,2013-03-27 19:27:00,
2013-03-27 15:32:00,54.1,27.8,30.25,WNW,296,7.0,13.0,36,0.00,,---,0.00,VWS V14.01,2013-03-27 19:32:00,
2013-03-27 15:37:00,53.2,26.3,30.25,NW,318,6.0,15.0,35,0.00,,---,0.00,VWS V14.01,2013-03-27 19:37:00,
2013-03-27 15:43:00,53.3,27.7,30.25,NNE,20,3.0,15.0,37,0.00,,---,0.00,VWS V14.01,2013-03-27 19:43:00,
2013-03-27 15:48:00,53.6,27.3,30.25,NW,311,7.0,11.0,36,0.00,,---,0.00,VWS V14.01,2013-03-27 19:48:00,
2013-03-27 15:53:00,53.6,25.2,30.25,NW,319,2.0,12.0,33,0.00,,---,0.00,VWS V14.01,2013-03-27 19:53:00,
2013-03-27 15:58:00,53.3,26.4,30.25,WSW,248,3.0,12.0,35,0.00,,---,0.00,VWS V14.01,2013-03-27 19:58:00,
2013-03-27 16:04:00,53.8,26.1,30.25,NW,314,7.0,8.0,34,0.00,,---,0.00,VWS V14.01,2013-03-27 20:04:00,
2013-03-27 16:09:00,53.3,25.7,30.25,NE,35,5.0,16.0,34,0.00,,---,0.00,VWS V14.01,2013-03-27 20:09:00,
2013-03-27 16:14:00,52.8,25.9,30.25,NW,324,4.0,16.0,35,0.00,,---,0.00,VWS V14.01,2013-03-27 20:14:00,
2013-03-27 16:19:00,53.4,26.5,30.25,WNW,285,2.0,12.0,35,0.00,,---,0.00,VWS V14.01,2013-03-27 20:19:00,
2013-03-27 16:24:00,53.7,27.4,30.25,NE,39,3.0,12.0,36,0.00,,---,0.00,VWS V14.01,2013-03-27 20:24:00,
2013-03-27 16:30:00,53.2,27.0,30.25,North,355,11.0,12.0,36,0.00,,---,0.00,VWS V14.01,2013-03-27 20:30:00,
2013-03-27 16:35:00,53.5,27.2,30.25,NW,325,4.0,11.0,36,0.00,,---,0.00,VWS V14.01,2013-03-27 20:35:00,
2013-03-27 16:40:00,53.1,27.5,30.25,NW,324,7.0,15.0,37,0.00,,---,0.00,VWS V14.01,2013-03-27 20:40:00,
2013-03-27 16:45:00,52.9,28.0,30.25,North,349,5.0,15.0,38,0.00,,---,0.00,VWS V14.01,2013-03-27 20:45:00,
2013-03-27 16:50:00,53.2,27.6,30.25,North,360,5.0,8.0,37,0.00,,---,0.00,VWS V14.01,2013-03-27 20:50:00,
2013-03-27 16:56:00,53.2,26.3,30.25,NNW,348,6.0,12.0,35,0.00,,---,0.00,VWS V14.01,2013-03-27 20:56:00,
2013-03-27 17:02:00,52.9,26.0,30.24,NW,320,4.0,8.0,35,0.00,,---,0.00,VWS V14.01,2013-03-27 21:02:00,
2013-03-27 17:07:00,53.2,25.6,30.25,NNW,342,3.0,8.0,34,0.00,,---,0.00,VWS V14.01,2013-03-27 21:07:00,
2013-03-27 17:12:00,52.9,26.7,30.25,NW,315,6.0,11.0,36,0.00,,---,0.00,VWS V14.01,2013-03-27 21:12:00,
2013-03-27 17:17:00,53.0,27.4,30.25,NW,317,5.0,7.0,37,0.00,,---,0.00,VWS V14.01,2013-03-27 21:17:00,
2013-03-27 17:23:00,52.7,27.2,30.24,NNW,331,8.0,9.0,37,0.00,,---,0.00,VWS V14.01,2013-03-27 21:23:00,
2013-03-27 17:28:00,52.6,26.4,30.24,North,349,5.0,9.0,36,0.00,,---,0.00,VWS V14.01,2013-03-27 21:28:00,
2013-03-27 17:33:00,52.6,26.4,30.24,North,351,3.0,5.0,36,0.00,,---,0.00,VWS V14.01,2013-03-27 21:33:00,
2013-03-27 17:38:00,52.7,26.5,30.25,North,11,10.0,10.0,36,0.00,,---,0.00,VWS V14.01,2013-03-27 21:38:00,
2013-03-27 17:44:00,52.2,25.4,30.24,NNW,340,3.0,10.0,35,0.00,,---,0.00,VWS V14.01,2013-03-27 21:44:00,
2013-03-27 17:49:00,52.0,24.5,30.24,NNE,15,5.0,12.0,34,0.00,,---,0.00,VWS V14.01,2013-03-27 21:49:00,
2013-03-27 17:54:00,52.0,25.2,30.24,NNW,346,5.0,12.0,35,0.00,,---,0.00,VWS V14.01,2013-03-27 21:54:00,
2013-03-27 18:00:00,51.7,25.0,30.24,NW,319,4.0,12.0,35,0.00,,---,0.00,VWS V14.01,2013-03-27 22:00:00,
2013-03-27 18:05:00,51.7,25.6,30.25,WNW,286,1.0,7.0,36,0.00,,---,0.00,VWS V14.01,2013-03-27 22:05:00,
2013-03-27 18:10:00,51.7,25.6,30.24,NNE,21,5.0,10.0,36,0.00,,---,0.00,VWS V14.01,2013-03-27 22:10:00,
2013-03-27 18:15:00,51.5,25.5,30.24,NNW,330,3.0,10.0,36,0.00,,---,0.00,VWS V14.01,2013-03-27 22:15:00,
2013-03-27 18:21:00,51.4,24.7,30.25,NNW,336,5.0,7.0,35,0.00,,---,0.00,VWS V14.01,2013-03-27 22:21:00,
2013-03-27 18:26:00,51.4,24.7,30.25,North,355,3.0,10.0,35,0.00,,---,0.00,VWS V14.01,2013-03-27 22:26:00,
2013-03-27 18:31:00,51.3,24.6,30.25,NNW,346,7.0,11.0,35,0.00,,---,0.00,VWS V14.01,2013-03-27 22:31:00,
2013-03-27 18:37:00,50.9,24.2,30.25,North,355,7.0,11.0,35,0.00,,---,0.00,VWS V14.01,2013-03-27 22:37:00,
2013-03-27 18:42:00,50.5,23.9,30.25,NNE,13,3.0,11.0,35,0.00,,---,0.00,VWS V14.01,2013-03-27 22:42:00,
2013-03-27 18:48:00,50.1,23.5,30.26,North,10,3.0,6.0,35,0.00,,---,0.00,VWS V14.01,2013-03-27 22:48:00,
2013-03-27 18:53:00,49.9,24.0,30.26,NNW,336,3.0,9.0,36,0.00,,---,0.00,VWS V14.01,2013-03-27 22:53:00,
2013-03-27 18:58:00,49.7,23.9,30.26,North,355,2.0,9.0,36,0.00,,---,0.00,VWS V14.01,2013-03-27 22:58:00,
2013-03-27 19:03:00,49.4,23.6,30.26,North,360,3.0,10.0,36,0.00,,---,0.00,VWS V14.01,2013-03-27 23:03:00,
2013-03-27 19:09:00,49.0,23.2,30.26,NNE,18,2.0,10.0,36,0.00,,---,0.00,VWS V14.01,2013-03-27 23:09:00,
2013-03-27 19:14:00,48.7,23.0,30.26,NW,315,4.0,10.0,36,0.00,,---,0.00,VWS V14.01,2013-03-27 23:14:00,
2013-03-27 19:19:00,48.2,23.2,30.26,North,9,4.0,7.0,37,0.00,,---,0.00,VWS V14.01,2013-03-27 23:19:00,
2013-03-27 19:24:00,47.8,22.2,30.26,NNW,336,7.0,7.0,36,0.00,,---,0.00,VWS V14.01,2013-03-27 23:24:00,
2013-03-27 19:29:00,47.3,22.4,30.27,NNE,31,2.0,9.0,37,0.00,,---,0.00,VWS V14.01,2013-03-27 23:29:00,
2013-03-27 19:34:00,47.1,22.2,30.27,NNW,340,3.0,8.0,37,0.00,,---,0.00,VWS V14.01,2013-03-27 23:34:00,
2013-03-27 19:40:00,46.6,22.4,30.27,NNE,25,8.0,8.0,38,0.00,,---,0.00,VWS V14.01,2013-03-27 23:40:00,
2013-03-27 19:45:00,46.4,20.9,30.27,NNW,336,3.0,11.0,36,0.00,,---,0.00,VWS V14.01,2013-03-27 23:45:00,
2013-03-27 19:50:00,46.1,21.3,30.28,North,355,5.0,6.0,37,0.00,,---,0.00,VWS V14.01,2013-03-27 23:50:00,
2013-03-27 19:55:00,45.9,21.1,30.28,NNW,329,1.0,6.0,37,0.00,,---,0.00,VWS V14.01,2013-03-27 23:55:00,
2013-03-27 20:00:00,45.5,21.4,30.28,North,349,3.0,7.0,38,0.00,,---,0.00,VWS V14.01,2013-03-28 00:00:00,
2013-03-27 20:05:00,45.2,21.1,30.28,NW,306,2.0,5.0,38,0.00,,---,0.00,VWS V14.01,2013-03-28 00:05:00,
2013-03-27 20:11:00,44.8,21.4,30.28,North,5,2.0,5.0,39,0.00,,---,0.00,VWS V14.01,2013-03-28 00:11:00,
2013-03-27 20:16:00,44.5,21.1,30.28,NNW,348,1.0,5.0,39,0.00,,---,0.00,VWS V14.01,2013-03-28 00:16:00,
2013-03-27 20:22:00,44.0,21.2,30.28,NNW,338,0.0,4.0,40,0.00,,---,0.00,VWS V14.01,2013-03-28 00:22:00,
2013-03-27 20:27:00,43.9,21.2,30.28,NW,311,5.0,7.0,40,0.00,,---,0.00,VWS V14.01,2013-03-28 00:27:00,
2013-03-27 20:32:00,43.9,21.2,30.28,NNE,13,3.0,4.0,40,0.00,,---,0.00,VWS V14.01,2013-03-28 00:32:00,
2013-03-27 20:37:00,43.7,21.6,30.29,NNW,348,2.0,4.0,41,0.00,,---,0.00,VWS V14.01,2013-03-28 00:37:00,
2013-03-27 20:43:00,43.4,21.3,30.29,NNW,333,0.0,4.0,41,0.00,,---,0.00,VWS V14.01,2013-03-28 00:43:00,
2013-03-27 20:49:00,43.0,22.0,30.29,North,10,2.0,4.0,43,0.00,,---,0.00,VWS V14.01,2013-03-28 00:49:00,
2013-03-27 20:54:00,42.7,21.8,30.30,NNW,334,5.0,5.0,43,0.00,,---,0.00,VWS V14.01,2013-03-28 00:54:00,
2013-03-27 20:59:00,42.4,22.0,30.30,NE,46,0.0,5.0,44,0.00,,---,0.00,VWS V14.01,2013-03-28 00:59:00,
2013-03-27 21:04:00,42.4,22.6,30.30,NNE,17,0.0,4.0,45,0.00,,---,0.00,VWS V14.01,2013-03-28 01:04:00,
2013-03-27 21:09:00,42.1,22.8,30.30,NE,43,0.0,4.0,46,0.00,,---,0.00,VWS V14.01,2013-03-28 01:09:00,
2013-03-27 21:15:00,41.8,23.1,30.30,NE,38,0.0,4.0,47,0.00,,---,0.00,VWS V14.01,2013-03-28 01:15:00,
2013-03-27 21:20:00,41.5,22.8,30.31,North,350,1.0,3.0,47,0.00,,---,0.00,VWS V14.01,2013-03-28 01:20:00,
2013-03-27 21:25:00,41.2,23.0,30.31,NNE,26,2.0,3.0,48,0.00,,---,0.00,VWS V14.01,2013-03-28 01:25:00,
2013-03-27 21:30:00,40.9,23.2,30.31,NNW,334,4.0,4.0,49,0.00,,---,0.00,VWS V14.01,2013-03-28 01:30:00,
2013-03-27 21:36:00,41.0,23.3,30.30,NNW,346,5.0,6.0,49,0.00,,---,0.00,VWS V14.01,2013-03-28 01:36:00,
2013-03-27 21:42:00,40.8,23.6,30.31,North,355,1.0,6.0,50,0.00,,---,0.00,VWS V14.01,2013-03-28 01:42:00,
2013-03-27 21:47:00,40.7,23.5,30.31,NNW,327,0.0,1.0,50,0.00,,---,0.00,VWS V14.01,2013-03-28 01:47:00,
2013-03-27 21:52:00,40.4,23.2,30.31,North,9,0.0,3.0,50,0.00,,---,0.00,VWS V14.01,2013-03-28 01:52:00,
2013-03-27 21:57:00,40.1,23.4,30.31,ENE,61,0.0,3.0,51,0.00,,---,0.00,VWS V14.01,2013-03-28 01:57:00,
2013-03-27 22:03:00,40.0,23.4,30.32,NNE,19,0.0,2.0,51,0.00,,---,0.00,VWS V14.01,2013-03-28 02:03:00,
2013-03-27 22:08:00,39.6,23.0,30.32,NNE,26,0.0,2.0,51,0.00,,---,0.00,VWS V14.01,2013-03-28 02:08:00,
2013-03-27 22:13:00,39.1,23.4,30.32,NNW,338,2.0,4.0,53,0.00,,---,0.00,VWS V14.01,2013-03-28 02:13:00,
2013-03-27 22:19:00,39.0,23.3,30.32,NNW,339,2.0,4.0,53,0.00,,---,0.00,VWS V14.01,2013-03-28 02:19:00,
2013-03-27 22:24:00,39.1,23.4,30.32,North,355,4.0,6.0,53,0.00,,---,0.00,VWS V14.01,2013-03-28 02:24:00,
2013-03-27 22:29:00,39.2,23.5,30.32,North,355,3.0,6.0,53,0.00,,---,0.00,VWS V14.01,2013-03-28 02:29:00,
2013-03-27 22:34:00,39.3,23.6,30.32,NNW,341,2.0,6.0,53,0.00,,---,0.00,VWS V14.01,2013-03-28 02:34:00,
2013-03-27 22:39:00,39.2,23.5,30.32,NNW,327,0.0,6.0,53,0.00,,---,0.00,VWS V14.01,2013-03-28 02:39:00,
2013-03-27 22:45:00,38.9,23.2,30.32,North,360,0.0,6.0,53,0.00,,---,0.00,VWS V14.01,2013-03-28 02:45:00,
2013-03-27 22:50:00,38.7,23.1,30.33,NNW,327,0.0,3.0,53,0.00,,---,0.00,VWS V14.01,2013-03-28 02:50:00,
2013-03-27 22:55:00,38.3,23.1,30.33,NNW,327,0.0,3.0,54,0.00,,---,0.00,VWS V14.01,2013-03-28 02:55:00,
2013-03-27 23:01:00,37.7,23.0,30.33,NNW,327,0.0,3.0,55,0.00,,---,0.00,VWS V14.01,2013-03-28 03:01:00,
2013-03-27 23:06:00,37.1,22.9,30.33,NNW,327,0.0,1.0,56,0.00,,---,0.00,VWS V14.01,2013-03-28 03:06:00,
2013-03-27 23:12:00,36.8,23.4,30.32,NNW,327,0.0,1.0,58,0.00,,---,0.00,VWS V14.01,2013-03-28 03:12:00,
2013-03-27 23:17:00,36.6,23.2,30.33,NNW,327,0.0,0.0,58,0.00,,---,0.00,VWS V14.01,2013-03-28 03:17:00,
2013-03-27 23:22:00,35.7,23.2,30.33,NNW,327,0.0,1.0,60,0.00,,---,0.00,VWS V14.01,2013-03-28 03:22:00,
2013-03-27 23:28:00,35.2,23.5,30.33,NNW,327,0.0,1.0,62,0.00,,---,0.00,VWS V14.01,2013-03-28 03:28:00,
2013-03-27 23:33:00,34.9,23.2,30.33,NNW,327,0.0,0.0,62,0.00,,---,0.00,VWS V14.01,2013-03-28 03:33:00,
2013-03-27 23:38:00,34.8,23.1,30.33,NNW,328,1.0,2.0,62,0.00,,---,0.00,VWS V14.01,2013-03-28 03:38:00,
2013-03-27 23:43:00,34.9,23.2,30.33,NNW,328,2.0,2.0,62,0.00,,---,0.00,VWS V14.01,2013-03-28 03:43:00,
2013-03-27 23:48:00,35.1,23.8,30.33,NNW,328,0.0,0.0,63,0.00,,---,0.00,VWS V14.01,2013-03-28 03:48:00,
2013-03-27 23:54:00,34.9,23.6,30.33,NNW,328,0.0,0.0,63,0.00,,---,0.00,VWS V14.01,2013-03-28 03:54:00,
2013-03-27 23:59:00,34.2,23.3,30.33,NNW,328,0.0,0.0,64,0.00,,---,0.00,VWS V14.01,2013-03-28 03:59:00,